EW5720 Weather Reports


time (UTC)temp
F
wind
direction
speed
knots
gust
knots
rain 1hr
in
rain 24hr
in
rain mn
in
humidity
%
barometer
mb
20260906181054 71 146 3.5 7.8 0.00 0.00 0.00 88 1018.8
20260906180554 70 138 3.5 7.8 0.00 0.00 0.00 89 1018.8
20260906180106 70 146 1.7 7.8 0.00 0.00 0.00 89 1018.9
20260906175555 70 146 3.5 7.8 0.00 0.00 0.00 89 1019.0
20260906175055 70 152 3.5 7.8 0.00 0.00 0.00 89 1019.0
20260906174606 70 151 3.5 7.0 0.00 0.00 0.00 89 1019.2
20260906174054 70 152 3.5 7.0 0.00 0.00 0.00 89 1019.4
20260906173555 70 148 2.6 7.8 0.00 0.00 0.00 89 1019.4
20260906173107 70 150 3.5 7.8 0.00 0.00 0.00 89 1019.3
20260906172554 70 147 3.5 7.8 0.00 0.00 0.00 88 1019.3
20260906172054 70 142 3.5 7.8 0.00 0.00 0.00 88 1019.3
20260906171602 70 151 2.6 8.7 0.00 0.00 0.00 88 1019.5
20260906171055 70 145 3.5 11.3 0.00 0.00 0.00 88 1019.7
20260906170554 70 136 6.1 11.3 0.00 0.00 0.00 88 1019.7
20260906170106 70 145 6.1 11.3 0.00 0.00 0.00 88 1019.7
20260906165556 70 146 5.2 9.6 0.00 0.00 0.00 88 1019.8
20260906165054 70 153 7.0 13.0 0.00 0.00 0.00 88 1019.8
20260906164620 70 144 6.1 13.0 0.00 0.00 0.00 88 1019.9
20260906164054 70 155 7.8 11.3 0.00 0.00 0.00 88 1019.8
20260906163555 70 144 7.0 11.3 0.00 0.00 0.00 88 1019.7
20260906163107 70 127 7.8 12.2 0.00 0.00 0.00 88 1019.7
20260906162555 70 154 7.8 13.9 0.00 0.00 0.00 87 1019.8
20260906162053 70 157 8.7 15.6 0.00 0.00 0.00 87 1019.6
20260906161601 70 147 10.4 15.6 0.00 0.00 0.00 87 1019.4
20260906161054 70 148 10.4 15.6 0.00 0.00 0.00 87 1019.3
20260906160554 70 138 10.4 15.6 0.00 0.00 0.00 87 1019.2
20260906160105 71 151 11.3 14.8 0.00 0.00 0.00 88 1019.4
20260906155555 71 150 8.7 13.9 0.00 0.00 0.00 89 1019.4
20260906155059 71 153 9.6 14.8 0.00 0.00 0.00 88 1019.4
20260906154609 71 155 10.4 14.8 0.00 0.00 0.00 90 1019.2
20260906154056 70 127 10.4 14.8 0.00 0.00 0.00 90 1019.2
20260906153554 69 150 9.6 13.0 0.00 0.00 0.00 91 1019.1
20260906153106 69 360 7.0 12.2 0.00 0.00 0.00 92 1019.3
20260906152556 69 144 6.1 12.2 0.00 0.00 0.00 92 1019.3
20260906152054 69 148 7.0 14.8 0.00 0.00 0.00 92 1019.4
20260906151608 69 148 8.7 14.8 0.00 0.00 0.00 92 1019.5
20260906151056 69 144 8.7 14.8 0.00 0.00 0.00 92 1019.5
20260906150555 68 142 7.8 14.8 0.00 0.00 0.00 92 1019.4
20260906150109 68 134 10.4 13.9 0.00 0.00 0.00 92 1019.5
20260906145554 68 132 8.7 15.6 0.00 0.00 0.00 93 1019.5
20260906145055 68 145 8.7 15.6 0.00 0.00 0.00 93 1019.5
20260906144631 68 148 8.7 14.8 0.00 0.00 0.00 93 1019.5
20260906144055 68 151 10.4 14.8 0.00 0.00 0.00 93 1019.5
20260906143555 68 146 7.0 14.8 0.00 0.00 0.00 93 1019.4
20260906143115 68 128 8.7 14.8 0.00 0.00 0.00 93 1019.5
20260906142554 68 157 11.3 13.9 0.00 0.00 0.00 93 1019.5
20260906142055 68 146 10.4 14.8 0.00 0.00 0.00 93 1019.5
20260906141606 68 156 9.6 16.5 0.00 0.00 0.00 93 1019.5
20260906141054 68 147 11.3 17.4 0.00 0.00 0.00 93 1019.5
20260906140556 68 151 12.2 18.2 0.00 0.00 0.00 93 1019.4
20260906140107 67 144 12.2 20.0 0.00 0.00 0.00 93 1019.4
20260906135555 68 142 13.0 20.0 0.00 0.00 0.00 93 1019.4
20260906135056 68 147 10.4 15.6 0.00 0.00 0.00 93 1019.5
20260906134604 67 159 8.7 17.4 0.00 0.00 0.00 93 1019.6
20260906134056 67 153 9.6 17.4 0.00 0.00 0.00 93 1019.6
20260906133554 67 153 11.3 16.5 0.00 0.00 0.00 93 1019.6
20260906133109 68 146 11.3 14.8 0.00 0.00 0.00 93 1019.6
20260906132554 68 148 8.7 13.0 0.00 0.00 0.00 93 1019.4
20260906132056 68 155 7.0 12.2 0.00 0.00 0.00 93 1019.4
20260906131610 68 146 6.1 13.0 0.00 0.00 0.00 93 1019.4
20260906131053 68 146 7.8 14.8 0.00 0.00 0.00 94 1019.3
20260906130553 67 147 9.6 14.8 0.00 0.00 0.00 94 1019.2
20260906130106 68 146 7.8 14.8 0.00 0.00 0.00 94 1019.2
20260906125553 67 159 8.7 15.6 0.00 0.00 0.00 94 1019.1
20260906125053 67 151 7.8 16.5 0.00 0.00 0.00 94 1019.1
20260906124605 67 158 12.2 16.5 0.00 0.00 0.00 94 1018.8
20260906124053 67 154 12.2 16.5 0.00 0.00 0.00 94 1018.7
20260906123554 67 160 10.4 15.6 0.00 0.00 0.00 93 1018.6
20260906123111 67 156 9.6 15.6 0.00 0.00 0.00 93 1018.5
20260906122553 67 153 9.6 14.8 0.00 0.00 0.00 94 1018.4
20260906122056 67 144 9.6 14.8 0.00 0.00 0.00 93 1018.3
20260906121602 67 144 8.7 14.8 0.00 0.00 0.00 93 1018.2
20260906121053 67 140 7.0 13.0 0.00 0.00 0.00 93 1018.1
20260906120556 67 146 7.8 12.2 0.00 0.00 0.00 93 1018.1
20260906120126 67 147 7.0 12.2 0.00 0.00 0.00 93 1018.0
20260906115553 67 141 7.0 12.2 0.00 0.00 0.00 93 1018.0
20260906115055 67 139 7.8 12.2 0.00 0.00 0.00 93 1018.0
20260906114609 67 153 7.8 12.2 0.00 0.00 0.00 93 1018.0
20260906114053 67 150 7.8 12.2 0.00 0.00 0.00 93 1018.0
20260906113553 67 139 7.8 11.3 0.00 0.00 0.00 93 1018.0
20260906113104 67 153 6.1 11.3 0.00 0.00 0.00 93 1018.1
20260906112553 67 150 7.8 10.4 0.00 0.00 0.00 93 1018.1
20260906112052 66 139 7.0 10.4 0.00 0.00 0.00 93 1018.1
20260906111604 66 151 7.0 10.4 0.00 0.00 0.00 93 1018.1
20260906111057 66 142 7.8 10.4 0.00 0.00 0.00 93 1018.1
20260906110553 66 152 6.1 10.4 0.00 0.00 0.00 93 1018.1
20260906110111 66 143 6.1 10.4 0.00 0.00 0.00 93 1018.2
20260906105553 66 147 7.0 10.4 0.00 0.00 0.00 93 1018.1
20260906105054 66 148 6.1 8.7 0.00 0.00 0.00 93 1018.2
20260906104606 66 150 6.1 9.6 0.00 0.00 0.00 93 1018.2
20260906104053 66 150 6.1 10.4 0.00 0.00 0.00 93 1018.2
20260906103553 67 142 7.0 10.4 0.00 0.00 0.00 93 1018.2
20260906103104 67 146 5.2 10.4 0.00 0.00 0.00 93 1018.2
20260906102554 67 144 6.1 10.4 0.00 0.00 0.00 93 1018.2
20260906102054 67 144 7.0 10.4 0.00 0.00 0.00 93 1018.0
20260906101604 67 152 7.0 10.4 0.00 0.00 0.00 93 1017.8
20260906101054 67 148 7.0 10.4 0.00 0.00 0.00 93 1017.7
20260906100554 67 137 6.1 10.4 0.00 0.00 0.00 93 1017.5
20260906100110 66 144 7.8 10.4 0.00 0.00 0.00 93 1017.6
20260906095554 66 160 7.0 10.4 0.00 0.00 0.00 93 1017.5
20260906095057 66 145 7.0 9.6 0.00 0.00 0.00 92 1017.6
20260906094606 66 149 6.1 9.6 0.00 0.00 0.00 92 1017.6
20260906094054 66 146 7.0 9.6 0.00 0.00 0.00 92 1017.6
20260906093555 66 144 7.0 8.7 0.00 0.00 0.00 92 1017.6
20260906093118 66 150 6.1 8.7 0.00 0.00 0.00 92 1017.7
20260906092554 66 139 6.1 9.6 0.00 0.00 0.00 92 1017.6
20260906092055 66 148 5.2 9.6 0.00 0.00 0.00 92 1017.5
20260906091606 66 148 6.1 8.7 0.00 0.00 0.00 92 1017.6
20260906091059 66 150 6.1 8.7 0.00 0.00 0.00 92 1017.5
20260906090554 66 146 5.2 7.8 0.00 0.00 0.00 92 1017.5
20260906090137 66 119 4.3 7.8 0.00 0.00 0.00 92 1017.4
20260906085554 66 135 4.3 7.8 0.00 0.00 0.00 92 1017.3
20260906085054 67 140 4.3 7.0 0.00 0.00 0.00 92 1017.3
20260906084605 67 134 3.5 7.0 0.00 0.00 0.00 92 1017.3
20260906084053 67 150 2.6 7.0 0.00 0.00 0.00 92 1017.2
20260906083554 67 142 1.7 6.1 0.00 0.00 0.00 92 1017.2
20260906083100 67 151 1.7 7.0 0.00 0.00 0.00 92 1017.2
20260906082554 67 153 3.5 7.0 0.00 0.00 0.00 92 1017.2
20260906082053 67 152 3.5 7.0 0.00 0.00 0.00 92 1017.1
20260906081601 67 149 2.6 6.1 0.00 0.00 0.00 92 1017.2
20260906081056 67 148 3.5 6.1 0.00 0.00 0.00 92 1017.2
20260906080554 68 147 2.6 6.1 0.00 0.00 0.00 92 1017.2
20260906080105 68 142 1.7 7.0 0.00 0.00 0.00 92 1017.3
20260906075555 68 148 2.6 7.0 0.00 0.00 0.00 92 1017.2
20260906075055 68 144 2.6 7.0 0.00 0.00 0.00 92 1017.2
20260906074604 68 142 1.7 7.8 0.00 0.00 0.00 92 1017.1
20260906074053 68 360 1.7 7.8 0.00 0.00 0.00 92 1017.2
20260906073554 68 134 3.5 7.8 0.00 0.00 0.00 91 1017.2
20260906073100 68 146 2.6 6.1 0.00 0.00 0.00 91 1017.4
20260906072553 69 154 1.7 4.3 0.00 0.00 0.00 92 1017.5
20260906072054 69 134 0.9 6.1 0.00 0.00 0.00 92 1017.5
20260906071610 69 0 0.0 7.0 0.00 0.00 0.00 91 1017.5
20260906071052 69 137 2.6 7.0 0.00 0.00 0.00 91 1017.6
20260906070553 69 123 1.7 7.0 0.00 0.00 0.00 91 1017.5
20260906070105 69 111 1.7 7.0 0.00 0.00 0.00 91 1017.5
20260906065553 69 144 1.7 7.0 0.00 0.00 0.00 91 1017.6
20260906065053 69 123 0.9 6.1 0.00 0.00 0.00 91 1017.7
20260906064604 69 0 0.9 7.0 0.00 0.00 0.00 91 1017.8
20260906064053 69 144 3.5 7.0 0.00 0.00 0.00 91 1017.7
20260906063553 69 142 3.5 8.7 0.00 0.00 0.00 91 1017.8
20260906063103 70 148 4.3 8.7 0.00 0.00 0.00 91 1017.6
20260906062552 70 153 5.2 8.7 0.00 0.00 0.00 91 1017.6
20260906062057 70 140 1.7 6.1 0.00 0.00 0.00 91 1017.7
20260906061604 70 146 2.6 7.0 0.00 0.00 0.00 91 1017.6
20260906061054 70 140 2.6 7.8 0.00 0.00 0.00 91 1017.6
20260906060553 70 140 2.6 7.8 0.00 0.00 0.00 91 1017.6
20260906060109 70 109 3.5 7.8 0.00 0.00 0.00 91 1017.6
20260906055553 71 0 1.7 7.8 0.00 0.00 0.00 91 1017.7
20260906055054 71 130 1.7 6.1 0.00 0.00 0.00 91 1017.9
20260906054603 71 131 1.7 7.0 0.00 0.00 0.00 91 1017.8
20260906054053 71 132 0.9 9.6 0.00 0.00 0.00 91 1017.9
20260906053552 71 138 1.7 9.6 0.00 0.00 0.00 91 1017.8
20260906053101 71 134 2.6 7.8 0.00 0.00 0.00 91 1017.8
20260906052552 71 111 2.6 9.6 0.00 0.00 0.00 91 1017.8
20260906052053 71 127 2.6 9.6 0.00 0.00 0.00 91 1017.6
20260906051606 71 141 1.7 9.6 0.00 0.00 0.00 91 1017.6
20260906051052 71 120 2.6 9.6 0.00 0.00 0.00 91 1017.7
20260906050552 72 119 2.6 9.6 0.00 0.00 0.00 91 1017.6
20260906050132 72 91 1.7 7.8 0.00 0.00 0.00 91 1017.5
20260906045553 72 121 1.7 6.1 0.00 0.00 0.00 91 1017.6
20260906045053 72 0 0.9 7.0 0.00 0.00 0.00 91 1017.5
20260906044602 72 0 0.0 7.0 0.00 0.00 0.00 91 1017.5
20260906044053 72 103 1.7 7.0 0.00 0.00 0.00 91 1017.5
20260906043552 72 113 1.7 7.0 0.00 0.00 0.00 91 1017.5
20260906043109 72 128 1.7 6.1 0.00 0.00 0.00 91 1017.4
20260906042552 72 128 0.9 6.1 0.00 0.00 0.00 90 1017.4
20260906042058 72 123 0.0 7.8 0.00 0.00 0.00 90 1017.6
20260906041606 72 0 0.0 7.8 0.00 0.00 0.00 90 1017.5
20260906041053 72 76 2.6 7.8 0.00 0.00 0.00 90 1017.5
20260906040554 72 91 3.5 7.0 0.00 0.00 0.00 90 1017.5
20260906040114 73 98 2.6 7.0 0.00 0.00 0.00 90 1017.4
20260906035555 73 95 3.5 7.0 0.00 0.00 0.00 90 1017.4
20260906035054 73 105 1.7 5.2 0.00 0.00 0.00 90 1017.5
20260906034606 73 0 0.9 6.1 0.00 0.00 0.00 90 1017.4
20260906034056 73 129 0.9 6.1 0.00 0.00 0.00 90 1017.4
20260906033553 73 0 0.0 6.1 0.00 0.00 0.00 90 1017.5
20260906033106 73 129 0.0 6.1 0.00 0.00 0.00 90 1017.4
20260906032550 73 134 1.7 6.1 0.00 0.00 0.00 90 1017.4
20260906032050 73 114 1.7 3.5 0.00 0.00 0.00 90 1017.4
20260906031907 73 0 0.0 0.9 0.00 0.00 0.00 90 1017.4
20260906031055 73 0 0.0 0.0 0.00 0.00 0.00 90 1017.4
20260906030555 73 0 0.0 0.0 0.00 0.00 0.00 90 1017.4
20260906030135 73 0 0.0 0.0 0.00 0.00 0.00 90 1017.4
20260906025555 73 0 0.0 0.0 0.00 0.00 0.00 90 1017.4
20260906025054 73 0 0.0 0.0 0.00 0.00 0.00 90 1017.3
20260906024611 73 0 0.0 0.0 0.00 0.00 0.00 90 1017.3
20260906023555 73 0 0.0 3.5 0.00 0.00 0.00 90 1017.2
20260906023126 73 0 0.0 5.2 0.00 0.00 0.00 90 1017.2
20260906022554 73 88 0.9 6.1 0.00 0.00 0.00 90 1017.1
20260906022057 74 103 2.6 6.1 0.00 0.00 0.00 89 1017.1
20260906021613 74 98 2.6 5.2 0.00 0.00 0.00 89 1017.1
20260906021053 74 102 1.7 5.2 0.00 0.00 0.00 89 1017.1
20260906020553 74 0 0.0 3.5 0.00 0.00 0.00 89 1017.0
20260906020107 74 115 0.9 3.5 0.00 0.00 0.00 89 1016.9
20260906015642 74 115 1.7 3.5 0.00 0.00 0.00 89 1016.9
20260906015053 74 115 0.9 5.2 0.00 0.00 0.00 89 1016.8
20260906014630 74 0 0.9 5.2 0.00 0.00 0.00 89 1016.6
20260906014055 74 113 1.7 3.5 0.00 0.00 0.00 89 1016.6
20260906013554 74 117 1.7 3.5 0.00 0.00 0.00 89 1016.5
20260906013103 74 120 1.7 3.5 0.00 0.00 0.00 88 1016.5
20260906012928 74 121 0.9 2.6 0.00 0.00 0.00 88 1016.4
20260905220107 76 96 1.7 6.1 0.00 0.00 0.00 85 1015.3
20260905215554 76 0 0.9 7.0 0.00 0.00 0.00 84 1015.2
20260905215054 76 76 1.7 9.6 0.00 0.00 0.00 84 1015.4
20260905214610 76 132 0.9 9.6 0.00 0.00 0.00 84 1015.3
20260905214054 76 112 2.6 8.7 0.00 0.00 0.00 85 1015.4
20260905213554 76 130 0.9 10.4 0.00 0.00 0.00 84 1015.5
20260905213114 76 103 1.7 10.4 0.00 0.00 0.00 84 1015.5
20260905212554 76 0 2.6 9.6 0.00 0.00 0.00 84 1015.4
20260905212053 76 100 3.5 9.6 0.00 0.00 0.00 83 1015.6
20260905211604 76 122 3.5 8.7 0.00 0.00 0.00 83 1015.5
20260905211053 76 129 3.5 9.6 0.00 0.00 0.00 83 1015.5
20260905210549 77 113 2.6 10.4 0.00 0.00 0.00 83 1015.7
20260905210109 77 146 2.6 10.4 0.00 0.00 0.00 83 1015.6
20260905205555 77 100 2.6 9.6 0.00 0.00 0.00 83 1015.6
20260905205058 77 115 3.5 10.4 0.00 0.00 0.00 84 1015.6
20260905204603 77 123 1.7 10.4 0.00 0.00 0.00 84 1015.7
20260905204053 77 132 4.3 10.4 0.00 0.00 0.00 84 1015.6
20260905203557 77 106 3.5 9.6 0.00 0.00 0.00 85 1015.6
20260905203108 78 149 6.1 9.6 0.00 0.00 0.00 84 1015.6
20260905202551 78 153 4.3 8.7 0.00 0.00 0.00 84 1015.7
20260905202053 78 144 3.5 8.7 0.00 0.00 0.00 84 1015.6
20260905201608 78 144 3.5 8.7 0.00 0.00 0.00 84 1015.6
20260905201053 78 142 4.3 15.6 0.00 0.00 0.00 84 1015.6
20260905200550 78 136 4.3 15.6 0.00 0.00 0.00 84 1015.4
20260905195549 79 108 5.2 12.2 0.00 0.00 0.00 84 1015.4
20260905195053 78 111 2.6 12.2 0.00 0.00 0.00 83 1015.9
20260905194608 79 136 3.5 12.2 0.00 0.00 0.00 84 1015.7
20260905194054 79 100 5.2 14.8 0.00 0.00 0.00 83 1015.5
20260905193551 79 99 3.5 20.0 0.00 0.00 0.00 85 1015.4
20260905193106 78 91 7.0 20.0 0.00 0.00 0.00 85 1015.3
20260905192550 78 106 7.8 20.0 0.00 0.00 0.00 85 1015.0
20260905192057 78 80 4.3 16.5 0.00 0.00 0.00 85 1014.9
20260905191615 78 90 7.0 16.5 0.00 0.00 0.00 86 1015.3
20260905191054 78 87 7.8 15.6 0.00 0.00 0.00 87 1015.1
20260905190556 78 81 8.7 17.4 0.00 0.00 0.00 87 1015.1
20260905190105 78 73 11.3 17.4 0.00 0.00 0.00 87 1015.0
20260905185556 78 97 11.3 17.4 0.00 0.00 0.00 87 1015.2
20260905185055 78 360 7.8 13.0 0.00 0.00 0.00 87 1015.8
20260905184618 78 101 6.1 12.2 0.00 0.00 0.00 88 1016.3
20260905184053 78 94 6.1 12.2 0.00 0.00 0.00 87 1016.4
20260905183554 78 126 3.5 10.4 0.00 0.00 0.00 89 1016.8
20260905183103 77 92 3.5 8.7 0.00 0.00 0.00 89 1017.1
20260905182557 77 87 1.7 8.7 0.00 0.00 0.00 89 1017.2
20260905182053 76 74 1.7 8.7 0.00 0.00 0.00 90 1017.4
20260905181606 76 69 4.3 8.7 0.00 0.00 0.00 90 1017.4